Location: Grieser Field
(39.7333°N, 81.7975°W)
Time: 15:41:09

Hubble Space Telescope - Visible Passes

Search period start: 28 October 2016 00:00
Search period end: 06 November 2016 23:00
Orbit: 539 x 542 km, 28.5° (Epoch: 27 October)

Date Brightness Start Highest point End Pass type
(mag) Time Alt. Az. Time Alt. Az. Time Alt. Az.
03 Nov 3.5 06:25:57 10° S 06:27:09 11° SSE 06:28:21 10° SSE visible
04 Nov 3.3 06:15:18 10° SSW 06:17:09 13° SSE 06:18:59 10° SE visible
05 Nov 3.1 06:06:04 13° S 06:07:08 14° S 06:09:22 10° SE visible
06 Nov 3.0 04:56:54 15° S 04:57:09 15° S 04:59:37 10° SE visible
